Terug naar catalogus

STARLINK-5911

ActiefCommunicatieVLEO
NORAD 55950·PAYLOAD·🇺🇸 United States

Gelanceerd Mar 17, 2023 vanaf Vandenberg Space Force Base

Loading…

Volgende Passages (komende 24 uur)

TLE

VersSource: CelesTrak SupGP

Epoch: Sep 15, 2026, 01:41 UTC

1 55950C 23037AN  26258.07062500  .00028540  00000+0  23917-2 0  2582
2 55950  70.0003 147.0482 0002754 265.4334 267.1591 14.98317463    15

Volg STARLINK-5911 in realtime met AllMySat

Download on the App Store